Stations météo

réclame
Mon MeteoGroup
Angermünde, Allemagne (10291): Température de l'air & dewpoint: 17.09.2018 04:00:00 - 23.09.2018 04:00:00 (CEST)Angermünde, Allemagne (10291): Température de l'air 5cm & Température de l'air -5cm: 17.09.2018 04:00:00 - 23.09.2018 04:00:00 (CEST)Angermünde, Allemagne (10291): Température de l'air -20cm & Température de l'air -100cm: 17.09.2018 04:00:00 - 23.09.2018 04:00:00 (CEST)Angermünde, Allemagne (10291): Vitesse du vent & gusts: 17.09.2018 04:00:00 - 23.09.2018 04:00:00 (CEST)Angermünde, Allemagne (10291): Direction du vent: 17.09.2018 04:00:00 - 23.09.2018 04:00:00 (CEST)Angermünde, Allemagne (10291): reduced air pressure: 17.09.2018 04:00:00 - 23.09.2018 04:00:00 (CEST)Angermünde, Allemagne (10291): visibility: 17.09.2018 04:00:00 - 23.09.2018 04:00:00 (CEST)Angermünde, Allemagne (10291): Ensoleillement: 17.09.2018 04:00:00 - 23.09.2018 04:00:00 (CEST)Angermünde, Allemagne (10291): Quantités de précipitations: 17.09.2018 04:00:00 - 23.09.2018 04:00:00 (CEST)
Date & Time tt [°C] td [°C] tt 5cm [°C] tt -5cm [°C] tt -20cm [°C] tt -100cm [°C] ff [km/h] ff [knt] fx [km/h] fx [knt] dd ppp [hPa] vv [km] sd [min] rr [mm]
23.09.2018 04:00:00 9,7 7,9 8,6 12,9 16,0 18,2 15 8 27 15 WSW 1015,1 69 0 0,0
23.09.2018 03:00:00 10,0 8,2 9,4 13,2 16,1 18,2 19 11 30 16 WSW 1015,3 66 0 0,0
23.09.2018 02:00:00 10,3 8,3 9,8 13,3 16,3 18,2 17 9 30 16 WSW 1015,6 56 0 0,0
23.09.2018 01:00:00 10,5 7,8 9,6 13,5 16,5 18,2 15 8 24 13 SW 1015,5 70 0 0,0
23.09.2018 00:00:00 10,7 7,9 9,5 13,8 16,7 18,2 18 10 33 18 WSW 1015,6 70 0 0,0
22.09.2018 23:00:00 10,7 7,8 9,3 14,1 17,0 18,2 16 9 30 16 WSW 1015,7 70 0 0,0
22.09.2018 22:00:00 10,8 7,7 9,2 14,6 17,2 18,2 12 6 27 14 WSW 1015,9 70 0 0,3
22.09.2018 21:00:00 10,6 8,3 9,5 15,3 17,4 18,2 29 16 51 28 W 1016,6 6 0 0,5
22.09.2018 20:00:00 14,8 5,3 13,8 16,0 17,6 18,2 17 9 30 16 WSW 1015,3 70 0 0,0
22.09.2018 19:00:00 15,0 5,7 13,8 16,8 17,6 18,2 16 8 33 18 WSW 1015,2 70 0 0,0
22.09.2018 18:00:00 15,9 5,7 15,5 17,7 17,6 18,2 19 10 49 26 WSW 1015,3 64 28 0,0
22.09.2018 17:00:00 16,7 5,9 17,8 18,0 17,4 18,2 24 13 51 27 WSW 1015,6 32 48 0,0
22.09.2018 16:00:00 17,4 6,0 19,6 18,4 17,2 18,2 25 13 44 24 WSW 1015,7 13 59 0,0
22.09.2018 15:00:00 17,3 7,6 20,2 17,6 17,0 18,2 22 12 46 25 W 1015,8 41 33 0,0
22.09.2018 14:00:00 15,6 6,7 16,8 17,7 16,7 18,2 21 11 42 23 WSW 1016,2 51 33 0,0
22.09.2018 13:00:00 16,1 7,9 19,6 16,5 16,5 18,2 18 10 41 22 WSW 1016,4 43 45 0,0
22.09.2018 12:00:00 14,2 8,3 16,7 15,1 16,4 18,2 23 12 38 20 WSW 1016,8 50 20 0,0
22.09.2018 11:00:00 12,8 7,5 13,5 14,7 16,3 18,2 22 12 35 19 W 1016,7 60 31 0,0
22.09.2018 10:00:00 12,3 7,7 14,0 13,9 16,3 18,2 25 14 39 21 WSW 1016,2 46 20 0,0
22.09.2018 09:00:00 11,3 7,3 11,4 13,3 16,4 18,2 22 12 33 18 WSW 1015,4 54 4 0,0
22.09.2018 08:00:00 11,0 7,2 10,7 13,0 16,6 18,2 22 12 41 22 WSW 1014,7 70 2 0,0
22.09.2018 07:00:00 10,6 6,9 9,9 12,8 16,9 18,2 13 7 42 23 WSW 1013,9 70 0 0,0
22.09.2018 06:00:00 10,5 6,5 9,1 13,0 17,1 18,2 18 10 41 22 WSW 1013,2 70 0 0,0
22.09.2018 05:00:00 10,4 6,3 9,0 13,3 17,4 18,2 20 11 37 20 WSW 1013,0 70 0 0,0
22.09.2018 04:00:00 10,2 6,5 8,8 13,7 17,7 18,2 14 7 37 20 SW 1012,7 70 0 0,0
22.09.2018 03:00:00 10,8 6,7 9,2 14,2 18,1 18,2 21 11 36 19 WSW 1012,0 70 0 0,0
22.09.2018 02:00:00 11,4 8,0 9,4 14,8 18,4 18,2 18 10 38 20 WSW 1011,9 70 0 0,0
22.09.2018 01:00:00 11,2 9,9 10,0 15,3 18,7 18,2 11 6 30 16 SSW 1011,6 46 0 0,0
22.09.2018 00:00:00 12,1 9,1 10,1 16,0 19,0 18,2 15 8 31 17 WSW 1011,3 70 0 0,0
21.09.2018 23:00:00 13,1 11,3 11,7 16,8 19,3 18,2 18 10 28 15 WSW 1010,4 45 0 0,0
21.09.2018 22:00:00 13,3 11,9 12,4 17,4 19,7 18,2 15 8 29 16 WSW 1009,4 42 0 0,0
21.09.2018 21:00:00 13,3 11,8 12,5 18,0 20,0 18,2 11 6 28 15 SW 1007,6 70 0 0,3
21.09.2018 20:00:00 13,1 11,9 12,6 18,7 20,3 18,2 13 7 34 18 W 1006,6 54 0 0,2
21.09.2018 19:00:00 13,2 12,2 12,7 19,9 20,6 18,2 27 14 47 26 W 1006,5 13 0 0,8
21.09.2018 18:00:00 14,3 12,5 13,5 21,8 20,7 18,2 41 22 68 37 WNW 1006,0 38 0 0,8
21.09.2018 17:00:00 27,2 10,5 26,8 23,3 20,5 18,2 29 15 48 26 SW 1001,7 26 0 0,0
21.09.2018 16:00:00 28,6 12,9 28,8 23,8 20,2 18,2 24 13 54 29 SSW 1001,6 23 9 0,0
21.09.2018 15:00:00 29,5 12,3 31,5 23,9 19,8 18,2 30 16 56 30 SSW 1002,3 13 35 0,0
21.09.2018 14:00:00 28,7 12,2 30,3 23,3 19,4 18,2 24 13 48 26 SSW 1003,3 16 50 0,0
21.09.2018 13:00:00 27,7 12,7 29,3 22,4 19,0 18,1 26 14 42 23 S 1004,6 10 57 0,0
21.09.2018 12:00:00 26,8 13,6 29,2 21,2 18,6 18,1 20 11 35 19 S 1005,9 30 59 0,0
21.09.2018 11:00:00 24,6 13,5 26,2 19,7 18,3 18,1 20 11 32 17 S 1006,8 8 54 0,0
21.09.2018 10:00:00 22,4 13,8 22,6 18,4 18,2 18,1 17 9 31 17 S 1007,5 19 20 0,0
21.09.2018 09:00:00 20,9 14,2 21,9 17,1 18,2 18,1 16 8 26 14 S 1008,1 22 59 0,0
21.09.2018 08:00:00 17,7 13,5 16,9 16,4 18,3 18,1 13 7 23 12 S 1008,8 19 10 0,0
21.09.2018 07:00:00 16,4 12,7 15,1 16,3 18,4 18,1 16 9 22 12 S 1009,1 22 0 0,0
21.09.2018 06:00:00 15,0 12,5 13,3 16,4 18,6 18,1 10 6 16 9 S 1009,8 20 0 0,0
21.09.2018 05:00:00 15,1 12,3 13,2 16,7 18,8 18,1 10 6 15 8 SSE 1010,4 22 0 0,0
21.09.2018 04:00:00 15,5 13,4 13,6 16,8 19,0 18,1 11 6 13 7 S 1011,0 20 0 0,0
21.09.2018 03:00:00 15,1 13,2 11,8 17,1 19,3 18,1 8 4 10 5 SSE 1011,7 22 0 0,0
21.09.2018 02:00:00 15,0 12,7 10,9 17,5 19,5 18,1 5 3 6 4 S 1012,2 24 0 0,0
21.09.2018 01:00:00 14,9 13,5 12,0 18,0 19,8 18,1 3 2 6 4 S 1012,7 20 0 0,0
21.09.2018 00:00:00 15,3 13,0 13,4 18,5 20,1 18,1 5 3 9 5 SSW 1013,2 21 0 0,0
20.09.2018 23:00:00 17,1 14,2 13,3 19,1 20,3 18,1 4 2 8 5 SSW 1013,6 25 0 0,0
20.09.2018 22:00:00 18,3 14,3 14,4 19,9 20,5 18,0 6 3 10 5 SSW 1013,8 27 0 0,0
20.09.2018 21:00:00 19,8 15,5 16,5 20,6 20,7 18,0 8 4 8 5 SSW 1014,1 28 0 0,0
20.09.2018 20:00:00 21,1 14,5 17,5 21,5 20,9 18,0 8 4 9 5 S 1014,0 36 0 0,0
20.09.2018 19:00:00 24,0 13,8 20,7 22,6 20,9 18,0 6 3 9 5 SSE 1014,1 34 2 0,0
20.09.2018 18:00:00 26,9 12,6 26,8 23,6 20,7 18,0 5 3 16 9 WSW 1014,3 47 57 0,0
20.09.2018 17:00:00 27,2 12,8 28,9 24,1 20,5 18,0 9 5 34 18 SSW 1014,8 49 60 0,0
20.09.2018 16:00:00 26,8 12,2 29,1 24,2 20,1 18,0 19 10 35 19 SW 1015,3 22 60 0,0
20.09.2018 15:00:00 26,4 12,4 29,6 23,8 19,7 18,0 16 9 38 21 SSW 1015,9 26 60 0,0
20.09.2018 14:00:00 25,4 12,7 28,8 23,1 19,2 18,0 14 8 26 14 SSW 1016,7 22 60 0,0
20.09.2018 13:00:00 24,2 12,6 27,1 21,9 18,8 18,0 17 9 28 15 SSW 1017,2 30 56 0,0
20.09.2018 12:00:00 24,0 12,3 27,3 21,0 18,4 18,0 11 6 26 14 SW 1017,8 32 60 0,0
20.09.2018 11:00:00 23,4 12,8 26,4 19,4 18,2 18,0 15 8 25 13 W 1018,3 28 60 0,0
20.09.2018 10:00:00 21,9 12,9 23,3 18,0 18,1 18,0 11 6 21 11 WSW 1018,4 37 59 0,0
20.09.2018 09:00:00 17,5 13,8 17,5 16,8 18,1 18,0 4 2 6 4 S 1018,3 20 3 0,0
20.09.2018 08:00:00 14,8 13,0 13,6 16,3 18,3 18,0 5 3 9 5 WSW 1018,0 17 2 0,0
20.09.2018 07:00:00 15,5 13,0 12,1 16,5 18,5 18,0 8 4 10 5 WSW 1017,5 22 0 0,0
20.09.2018 06:00:00 16,1 12,6 13,5 16,8 18,7 18,0 8 5 10 6 W 1017,3 25 0 0,0
20.09.2018 05:00:00 17,1 13,1 14,0 17,0 18,9 18,0 8 4 10 5 WSW 1017,3 26 0 0,0
20.09.2018 04:00:00 16,1 12,3 13,7 17,4 19,1 18,0 4 2 10 6 WSW 1016,8 20 0 0,0
20.09.2018 03:00:00 17,8 12,8 14,9 17,7 19,3 17,9 8 4 12 6 S 1016,3 24 0 0,0
20.09.2018 02:00:00 18,1 12,8 15,1 18,1 19,5 17,9 8 4 12 6 SSW 1016,4 25 0 0,0
20.09.2018 01:00:00 20,0 12,7 15,8 18,6 19,7 17,9 5 3 13 7 SSW 1016,4 32 0 0,0
20.09.2018 00:00:00 20,5 12,7 18,2 19,0 19,9 17,9 10 6 17 9 SSW 1016,6 32 0 0,0
19.09.2018 23:00:00 21,1 12,9 19,3 19,4 20,1 17,9 14 8 19 11 S 1016,4 38 0 0,0
19.09.2018 22:00:00 20,7 13,3 18,4 19,9 20,3 17,9 10 5 18 10 S 1016,4 34 0 0,0
19.09.2018 21:00:00 21,8 13,3 18,6 20,5 20,5 17,9 9 5 12 7 S 1016,3 34 0 0,0
19.09.2018 20:00:00 22,7 13,9 19,0 21,5 20,6 17,9 8 4 13 7 SSE 1016,2 34 0 0,0
19.09.2018 19:00:00 25,1 13,4 22,2 22,7 20,6 17,9 8 4 19 10 SSE 1016,4 34 33 0,0
19.09.2018 18:00:00 26,5 13,3 27,0 23,6 20,4 17,9 10 5 27 14 S 1016,2 38 60 0,0
19.09.2018 17:00:00 27,0 12,9 28,8 24,1 20,2 17,9 10 6 28 15 SW 1016,7 32 60 0,0
19.09.2018 16:00:00 27,4 13,3 29,9 24,2 19,8 17,9 17 9 27 15 WSW 1017,1 25 60 0,0
19.09.2018 15:00:00 26,6 13,5 29,9 23,8 19,3 17,9 14 8 25 13 W 1017,5 30 60 0,0
19.09.2018 14:00:00 25,8 12,7 29,6 23,0 18,8 17,9 15 8 27 15 WSW 1017,7 24 60 0,0
19.09.2018 13:00:00 24,1 13,5 28,1 21,9 18,3 17,9 12 7 23 12 SW 1018,1 34 60 0,0
19.09.2018 12:00:00 23,2 13,2 26,8 20,5 17,9 17,9 16 9 24 13 W 1018,4 25 60 0,0
19.09.2018 11:00:00 21,5 13,4 23,0 19,3 17,6 17,9 14 7 21 11 WSW 1018,5 32 59 0,0
19.09.2018 10:00:00 20,7 13,7 22,4 17,6 17,5 17,9 10 5 18 10 W 1018,4 28 60 0,0
19.09.2018 09:00:00 18,6 13,9 19,0 16,1 17,5 17,9 4 2 6 3 S 1017,9 17 60 0,0
19.09.2018 08:00:00 13,7 12,4 12,9 15,5 17,7 17,9 6 3 7 4 WSW 1017,3 19 28 0,0
19.09.2018 07:00:00 13,4 12,1 10,7 15,7 17,9 17,9 4 2 6 4 WSW 1016,8 19 0 0,0
19.09.2018 06:00:00 14,5 12,8 10,6 16,1 18,1 17,9 4 2 10 6 W 1016,5 21 0 0,0
19.09.2018 05:00:00 15,8 12,5 12,4 16,5 18,3 17,9 9 5 15 8 WNW 1016,3 28 0 0,0
19.09.2018 04:00:00 17,5 11,8 15,4 16,7 18,5 17,9 10 5 21 11 NNW 1015,2 33 0 0,0
19.09.2018 03:00:00 17,8 10,8 14,2 17,1 18,7 17,9 8 4 14 8 WNW 1014,4 32 0 0,0
19.09.2018 02:00:00 18,7 10,6 16,1 17,4 18,9 17,9 10 5 16 8 S 1013,5 37 0 0,0
19.09.2018 01:00:00 18,8 10,7 15,8 17,8 19,1 17,9 8 4 18 10 S 1013,5 36 0 0,0
19.09.2018 00:00:00 19,8 10,7 17,7 18,1 19,3 17,9 13 7 17 9 S 1013,4 36 0 0,0
18.09.2018 23:00:00 20,3 10,9 17,1 18,6 19,6 17,9 11 6 14 7 S 1013,4 36 0 0,0
18.09.2018 22:00:00 21,0 11,1 16,5 19,2 19,8 17,9 10 5 12 7 S 1013,5 40 0 0,0
18.09.2018 21:00:00 22,5 10,6 18,8 20,1 20,0 17,9 10 5 14 7 S 1013,2 38 0 0,0
18.09.2018 20:00:00 24,0 10,8 20,1 21,2 20,1 17,9 10 5 16 8 S 1013,1 41 0 0,0
18.09.2018 19:00:00 26,2 10,8 24,1 22,5 20,1 18,0 10 6 19 10 SSE 1012,8 47 45 0,0
18.09.2018 18:00:00 28,1 10,6 28,3 23,5 19,8 18,0 13 7 28 15 S 1012,9 44 60 0,0
18.09.2018 17:00:00 28,5 11,2 29,9 24,0 19,5 18,0 18 10 31 17 S 1013,1 25 60 0,0
18.09.2018 16:00:00 28,7 11,7 31,2 24,0 19,0 18,0 17 9 33 18 S 1013,4 19 60 0,0
18.09.2018 15:00:00 28,6 10,5 31,3 23,6 18,5 18,0 16 9 35 19 SSW 1014,2 22 60 0,0
18.09.2018 14:00:00 28,0 12,3 31,1 22,8 17,9 18,0 16 9 29 15 S 1014,7 19 60 0,0
18.09.2018 13:00:00 26,4 11,0 29,8 21,5 17,3 18,0 14 8 24 13 S 1015,5 20 60 0,0
18.09.2018 12:00:00 24,1 11,5 27,1 19,7 16,8 18,0 14 8 22 12 S 1016,2 22 60 0,0
18.09.2018 11:00:00 21,3 10,6 23,6 18,0 16,5 18,0 11 6 15 8 SSE 1016,7 22 60 0,0
18.09.2018 10:00:00 19,5 10,6 21,0 15,9 16,3 18,0 9 5 13 7 S 1016,9 23 60 0,0
18.09.2018 09:00:00 16,0 9,7 16,6 14,4 16,4 18,0 6 3 13 7 SSE 1017,0 24 60 0,0
18.09.2018 08:00:00 13,0 8,7 11,7 13,9 16,5 18,0 7 4 14 7 SSE 1017,1 24 10 0,0
18.09.2018 07:00:00 12,3 8,3 9,2 14,0 16,7 18,0 5 3 10 5 S 1017,1 24 0 0,0
18.09.2018 06:00:00 12,8 8,3 9,8 14,3 16,9 18,0 6 4 12 7 SSE 1017,1 32 0 0,0
18.09.2018 05:00:00 13,2 8,9 9,9 14,5 17,1 18,0 8 4 10 5 S 1017,3 34 0 0,0
18.09.2018 04:00:00 12,6 10,0 8,9 14,8 17,3 18,0 6 3 14 7 SSE 1017,5 31 0 0,0
18.09.2018 03:00:00 14,1 10,6 11,1 15,1 17,6 18,0 12 6 15 8 S 1017,6 39 0 0,0
18.09.2018 02:00:00 12,5 10,9 9,6 15,5 17,8 18,0 6 4 7 4 SSE 1017,9 30 0 0,0
18.09.2018 01:00:00 12,3 11,4 9,8 15,9 18,1 18,0 5 3 6 3 S 1018,2 18 0 0,0
18.09.2018 00:00:00 13,1 9,6 10,9 16,4 18,4 18,0 3 2 11 6 SSW 1018,3 35 0 0,0
17.09.2018 23:00:00 15,2 10,2 11,7 16,9 18,6 18,0 7 4 9 5 SSE 1018,2 31 0 0,0
17.09.2018 22:00:00 14,4 11,0 11,0 17,6 18,9 18,0 2 1 6 4 SW 1018,4 37 0 0,0
17.09.2018 21:00:00 15,8 10,6 13,1 18,5 19,2 18,0 2 1 6 3 WSW 1018,6 38 0 0,0
17.09.2018 20:00:00 18,9 10,6 14,5 19,7 19,3 18,1 6 4 9 5 SSE 1018,4 30 0 0,0
17.09.2018 19:00:00 22,2 8,8 18,8 21,1 19,3 18,1 2 1 9 5 W 1018,1 44 23 0,0
17.09.2018 18:00:00 24,9 8,4 25,0 22,1 19,1 18,1 6 3 16 9 SSW 1017,9 46 53 0,0
17.09.2018 17:00:00 25,3 7,0 26,5 22,6 18,8 18,1 11 6 19 10 WSW 1018,1 69 60 0,0
17.09.2018 16:00:00 25,6 7,4 27,4 22,8 18,3 18,1 12 6 22 12 SW 1018,6 40 56 0,0
17.09.2018 15:00:00 26,0 8,3 29,5 22,4 17,8 18,1 11 6 25 13 WSW 1018,9 34 60 0,0
17.09.2018 14:00:00 24,6 8,5 28,1 21,5 17,2 18,1 16 8 28 15 SW 1019,4 30 60 0,0
17.09.2018 13:00:00 23,4 8,9 26,3 20,2 16,7 18,1 12 6 28 15 SW 1019,8 39 60 0,0
17.09.2018 12:00:00 21,8 8,8 24,0 18,7 16,3 18,1 10 5 20 11 SW 1020,1 47 57 0,0
17.09.2018 11:00:00 20,9 9,2 22,7 17,3 15,9 18,1 8 5 13 7 W 1020,5 55 60 0,0
17.09.2018 10:00:00 18,4 10,2 19,7 15,1 15,8 18,1 5 3 13 7 S 1020,6 27 60 0,0
17.09.2018 09:00:00 15,3 9,3 15,5 13,6 15,8 18,1 7 4 12 6 S 1020,3 20 60 0,0
17.09.2018 08:00:00 12,2 8,9 11,0 12,9 16,0 18,1 7 4 12 7 SSW 1020,3 24 34 0,0
17.09.2018 07:00:00 11,4 8,4 9,3 13,0 16,2 18,1 10 5 15 8 S 1020,0 27 0 0,0
17.09.2018 06:00:00 10,6 9,3 7,7 13,2 16,4 18,2 6 3 15 8 S 1020,3 17 0 0,0
17.09.2018 05:00:00 10,7 8,7 7,6 13,5 16,6 18,2 9 5 12 6 SSE 1020,1 23 0 0,0
17.09.2018 04:00:00 11,8 9,0 8,1 14,0 16,8 18,2 5 3 12 7 SSE 1020,4 23 0 0,0

tt = Température de l'air
td = dewpoint
tt 5cm = Température de l'air 5cm
tt -5cm = Température de l'air -5cm
tt -20cm = Température de l'air -20cm
tt -100cm = Température de l'air -100cm
ff = Vitesse du vent
fx = gusts
dd = Direction du vent
ppp = reduced air pressure
vv = visibility
sd = Ensoleillement
rr = Quantités de précipitations

stations d'obs. à proximité